Change the Weather History Date:

Thursday, April 17, 2014

  Actual Average (KHKY) Record (KHKY)
Temperature  
Mean Temperature 45 °F -  
Max Temperature 61 °F 70 °F 87 °F (2002)
Min Temperature 29 °F 46 °F 28 °F (1949)
Degree Days  
Heating Degree Days 20    
Moisture  
Dew Point 28 °F    
Average Humidity 59    
Maximum Humidity 98    
Minimum Humidity 23    
Precipitation  
Precipitation 0.00 in - - ()
Sea Level Pressure  
Sea Level Pressure 30.50 in    
Wind  
Wind Speed 3 mph (NE)    
Max Wind Speed 8 mph    
Max Gust Speed -    
Visibility 10 miles    
Events      
Averages and records for this station are not official NWS values.
T = Trace of Precipitation, MM = Missing Value Source: NWS Daily Summary

Daily Weather History Graph

Daily Weather History Graph

Search for Another Location

Airport or City:

Trip Planner

Search our weather history database for the weather conditions in past years. The results will help you decide how hot, cold, wet, or windy it might be!

Date:

Astronomy

Apr. 17, 2014 Rise Set
Actual Time 6:50 AM EDT 8:01 PM EDT
Civil Twilight 6:24 AM EDT 8:28 PM EDT
Nautical Twilight 5:53 AM EDT 8:59 PM EDT
Astronomical Twilight 5:20 AM EDT 9:32 PM EDT
Moon 10:42 PM EDT (4/17) 8:25 AM EDT (4/17)
Length of Visible Light 14h 03m
Length of Day
13h 10m
Waning Gibbous, 94% of the Moon is Illuminated
Apr 17
Waning Gibbous
Apr 22
Last Quarter
Apr 29
New
May 6
First Quarter
May 14
Full

Hourly Weather History & Observations

Time (EDT) Temp. Windchill Dew Point Humidity Pressure Visibility Wind Dir Wind Speed Gust Speed Precip Events Conditions
12:15 AM 38.5 °F 36.1 °F 25.9 °F 61% 30.46 in 10.0 mi ENE 3.5 mph - N/A   Clear
12:35 AM 38.1 °F 35.7 °F 26.1 °F 62% 30.46 in 10.0 mi ENE 3.5 mph - N/A   Clear
12:55 AM 35.1 °F 32.2 °F 27.1 °F 73% 30.47 in 10.0 mi ENE 3.5 mph - N/A   Clear
1:15 AM 32.7 °F - 28.9 °F 86% 30.47 in 10.0 mi Calm Calm - N/A   Clear
1:35 AM 32.0 °F 28.7 °F 29.1 °F 89% 30.47 in 10.0 mi North 3.5 mph - N/A   Clear
1:55 AM 32.0 °F 27.5 °F 30.0 °F 92% 30.48 in 10.0 mi North 4.6 mph - N/A   Clear
2:15 AM 30.7 °F - 28.6 °F 92% 30.48 in 10.0 mi Calm Calm - N/A   Clear
2:35 AM 30.2 °F - 28.8 °F 94% 30.48 in 10.0 mi Calm Calm - N/A   Clear
2:55 AM 29.8 °F - 28.6 °F 95% 30.49 in 10.0 mi Calm Calm - N/A   Clear
3:15 AM 29.8 °F - 28.9 °F 96% 30.49 in 10.0 mi Calm Calm - N/A   Clear
3:35 AM 29.3 °F - 28.4 °F 96% 30.49 in 10.0 mi Calm Calm - N/A   Clear
3:55 AM 29.8 °F - 29.1 °F 97% 30.51 in 10.0 mi Calm Calm - N/A   Clear
4:15 AM 30.0 °F 25.2 °F 29.5 °F 98% 30.51 in 10.0 mi NNW 4.6 mph - N/A   Clear
4:35 AM 32.0 °F 28.7 °F 29.8 °F 92% 30.51 in 10.0 mi North 3.5 mph - N/A   Clear
4:55 AM 32.0 °F 27.5 °F 28.4 °F 87% 30.51 in 10.0 mi North 4.6 mph - N/A   Clear
5:15 AM 32.2 °F 27.7 °F 29.1 °F 88% 30.51 in 10.0 mi North 4.6 mph - N/A   Clear
5:35 AM 32.0 °F 28.7 °F 29.3 °F 90% 30.51 in 10.0 mi North 3.5 mph - N/A   Clear
5:55 AM 32.0 °F 27.5 °F 29.3 °F 90% 30.52 in 10.0 mi North 4.6 mph - N/A   Clear
6:15 AM 32.0 °F 27.5 °F 28.6 °F 87% 30.52 in 10.0 mi North 4.6 mph - N/A   Clear
6:35 AM 32.0 °F 28.7 °F 28.4 °F 87% 30.53 in 10.0 mi North 3.5 mph - N/A   Clear
6:55 AM 31.6 °F 28.3 °F 28.4 °F 88% 30.54 in 10.0 mi North 3.5 mph - N/A   Clear
7:15 AM 30.6 °F 27.1 °F 28.6 °F 92% 30.54 in 10.0 mi North 3.5 mph - N/A   Clear
7:35 AM 32.7 °F 28.3 °F 29.7 °F 88% 30.56 in 10.0 mi North 4.6 mph - N/A   Clear
7:55 AM 33.8 °F 28.6 °F 29.3 °F 84% 30.56 in 10.0 mi North 5.8 mph - N/A   Clear
8:15 AM 35.6 °F 32.8 °F 29.8 °F 80% 30.56 in 10.0 mi North 3.5 mph - N/A   Clear
8:35 AM 37.9 °F 34.4 °F 29.7 °F 72% 30.57 in 10.0 mi North 4.6 mph - N/A   Clear
8:55 AM 39.4 °F 34.5 °F 28.9 °F 66% 30.58 in 10.0 mi North 6.9 mph - N/A   Clear
9:15 AM 41.7 °F 37.3 °F 28.0 °F 58% 30.58 in 10.0 mi North 6.9 mph - N/A   Clear
9:35 AM 44.2 °F 42.7 °F 27.7 °F 52% 30.58 in 10.0 mi NNE 3.5 mph - N/A   Clear
9:55 AM 44.4 °F 40.5 °F 27.5 °F 52% 30.58 in 10.0 mi NNW 6.9 mph - N/A   Clear
10:15 AM 45.7 °F 41.5 °F 27.5 °F 49% 30.58 in 10.0 mi North 8.1 mph - N/A   Clear
10:35 AM 46.6 °F - 27.3 °F 47% 30.58 in 10.0 mi NNE 5.8 mph - N/A   Clear
10:55 AM 48.6 °F - 27.3 °F 44% 30.58 in 10.0 mi Calm Calm - N/A   Clear
11:15 AM 49.3 °F - 25.9 °F 40% 30.57 in 10.0 mi NNE 3.5 mph - N/A   Clear
11:35 AM 50.5 °F - 23.7 °F 35% 30.56 in 10.0 mi Calm Calm - N/A   Clear
11:55 AM 51.6 °F - 23.7 °F 34% 30.56 in 10.0 mi North 4.6 mph - N/A   Clear
12:15 PM 51.8 °F - 22.8 °F 32% 30.56 in 10.0 mi ENE 3.5 mph - N/A   Clear
12:35 PM 52.7 °F - 25.0 °F 34% 30.55 in 10.0 mi ENE 5.8 mph - N/A   Clear
12:55 PM 54.5 °F - 24.4 °F 31% 30.54 in 10.0 mi East 4.6 mph - N/A   Clear
1:15 PM 54.7 °F - 23.7 °F 30% 30.54 in 10.0 mi SE 6.9 mph - N/A   Clear
1:35 PM 55.2 °F - 23.0 °F 29% 30.53 in 10.0 mi NNE 3.5 mph - N/A   Clear
1:55 PM 56.5 °F - 23.9 °F 28% 30.52 in 10.0 mi Calm Calm - N/A   Clear
2:15 PM 57.7 °F - 23.9 °F 27% 30.51 in 10.0 mi SSE 4.6 mph - N/A   Clear
2:35 PM 58.8 °F - 24.8 °F 27% 30.51 in 10.0 mi East 3.5 mph - N/A   Clear
2:55 PM 58.8 °F - 24.1 °F 26% 30.50 in 10.0 mi SSE 3.5 mph - N/A   Clear
3:15 PM 59.9 °F - 22.1 °F 23% 30.49 in 10.0 mi ESE 5.8 mph - N/A   Clear
3:35 PM 59.5 °F - 22.6 °F 24% 30.48 in 10.0 mi NE 4.6 mph - N/A   Clear
3:55 PM 60.3 °F - 22.8 °F 24% 30.47 in 10.0 mi East 4.6 mph - N/A   Clear
4:15 PM 61.0 °F - 23.0 °F 23% 30.46 in 10.0 mi SE 4.6 mph - N/A   Clear
4:35 PM 60.6 °F - 23.2 °F 24% 30.45 in 10.0 mi NE 3.5 mph - N/A   Clear
4:55 PM 61.0 °F - 22.6 °F 23% 30.45 in 10.0 mi ESE 4.6 mph - N/A   Clear
5:15 PM 60.6 °F - 23.5 °F 24% 30.45 in 10.0 mi East 4.6 mph - N/A   Clear
5:35 PM 61.0 °F - 23.7 °F 24% 30.44 in 10.0 mi South 4.6 mph - N/A   Clear
5:55 PM 60.8 °F - 24.3 °F 25% 30.44 in 10.0 mi East 3.5 mph - N/A   Clear
6:15 PM 61.0 °F - 24.4 °F 25% 30.44 in 10.0 mi East 3.5 mph - N/A   Clear
6:35 PM 60.6 °F - 24.1 °F 25% 30.45 in 10.0 mi East 5.8 mph - N/A   Clear
6:55 PM 59.4 °F - 24.4 °F 26% 30.46 in 10.0 mi East 4.6 mph - N/A   Clear
7:15 PM 58.5 °F - 26.2 °F 29% 30.44 in 10.0 mi ENE 4.6 mph - N/A   Clear
7:35 PM 56.5 °F - 26.8 °F 32% 30.45 in 10.0 mi East 3.5 mph - N/A   Clear
7:55 PM 52.0 °F - 33.6 °F 50% 30.46 in 10.0 mi Calm Calm - N/A   Clear
8:15 PM 45.9 °F 43.6 °F 34.9 °F 66% 30.45 in 10.0 mi NE 4.6 mph - N/A   Clear
8:35 PM 45.7 °F 44.4 °F 34.9 °F 66% 30.45 in 10.0 mi ENE 3.5 mph - N/A   Clear
8:55 PM 45.1 °F 43.7 °F 32.9 °F 62% 30.46 in 10.0 mi NE 3.5 mph - N/A   Clear
9:15 PM 45.9 °F 44.6 °F 32.0 °F 58% 30.47 in 10.0 mi ENE 3.5 mph - N/A   Clear
9:35 PM 42.4 °F - 33.3 °F 70% 30.48 in 10.0 mi Calm Calm - N/A   Clear
9:55 PM 40.5 °F 38.4 °F 33.4 °F 76% 30.48 in 10.0 mi NE 3.5 mph - N/A   Clear
10:15 PM 39.9 °F 37.8 °F 32.5 °F 75% 30.49 in 10.0 mi North 3.5 mph - N/A   Clear
10:35 PM 39.2 °F 37.0 °F 33.1 °F 79% 30.48 in 10.0 mi North 3.5 mph - N/A   Clear
10:55 PM 38.1 °F 35.7 °F 33.3 °F 83% 30.48 in 10.0 mi North 3.5 mph - N/A   Clear
11:15 PM 42.4 °F 39.6 °F 33.1 °F 69% 30.47 in 10.0 mi North 4.6 mph - N/A   Clear
11:35 PM 41.9 °F 39.0 °F 32.9 °F 70% 30.48 in 10.0 mi North 4.6 mph - N/A   Clear
11:55 PM 41.0 °F 38.0 °F 32.7 °F 72% 30.47 in 10.0 mi North 4.6 mph - N/A   Clear